Update: The SL-4 rocket body re-entered the Earths atmosphere on the 28th January, 2012 @ 07:03 GMT ± 1 minute.
Inclination: 51.62°Revolution Number: 39Predicted Location: 50°N, 307°E
A SL-4 rocket body that was launched on the 25th January, 2012, from the Baikonur Cosmodrome, for the Progress M-14M/46P mission is predicted to re-enter the Earths atmosphere on the 28th January, 2012 @ 06:25 GMT ± 7 hours.
SL-4 RB 1 38074U 12004B 12027.79520169 .05566599 12367-4 48504-3 0 195 2 38074 051.6163 110.9914 0020918 082.9274 277.4134 16.37575409 301
Period: 88.54 minutesInclination: 51.62°Apogee: 226 kmPerigee: 179 km Revolution Number: 37Predicted Location: 51.1°S, 144.8°E